Covington, KY

9:40 PM EST on December 14, 2019 (GMT -0500)
Cincinnati-Northern KY International

Weather History for KCVG - October, 2019

Change the Weather History Date:

Friday, October 11, 2019

  Actual Average Record
Temperature  
Mean Temperature 61 °F 57 °F  
Max Temperature 75 °F 68 °F 88 °F (1963)
Min Temperature 46 °F 47 °F 25 °F (1964)
Degree Days  
Heating Degree Days 4 8  
Month to date heating degree days 19 77  
Since 1 July heating degree days 19 135  
Cooling Degree Days 0 1  
Month to date cooling degree days 54 13  
Year to date cooling degree days 1496 1118  
Growing Degree Days 11 (Base 50)    
Moisture  
Dew Point 55 °F    
Average Humidity 74    
Maximum Humidity 93    
Minimum Humidity 53    
Precipitation  
Precipitation 0.14 in 0.11 in 0.81 in (1919)
Month to date precipitation 0.66 1.15  
Year to date precipitation 43.08 33.57  
Snow  
Snow 0.00 in 0.10 in - ()
Month to date snowfall 0.0 0.1  
Since 1 July snowfall 0.0 0.1  
Since 1 September snowfall 0.0 0.1  
Snow Depth 0.00 in    
Sea Level Pressure  
Sea Level Pressure 29.99 in    
Wind  
Wind Speed 10 mph ()    
Max Wind Speed 28 mph    
Max Gust Speed 32 mph    
Visibility 9.0 miles    
Events Rain    
T = Trace of Precipitation, MM = Missing Value Source: Averaged Metar Reports

Daily Weather History Graph

Daily Weather History Graph

Search for Another Location

Airport or City:

Astronomy

Oct. 11, 2019 Rise Set
Actual Time 7:44 AM EDT 7:06 PM EDT
Civil Twilight 7:17 AM EDT 7:32 PM EDT
Nautical Twilight 6:46 AM EDT 8:03 PM EDT
Astronomical Twilight 6:15 AM EDT 8:34 PM EDT
Moon 6:33 PM EDT (10/11) 5:25 AM EDT (10/11)
Length of Visible Light 12h 15m
Length of Day
11h 22m
Waxing Gibbous, 96% of the Moon is Illuminated
Oct 11
Waxing Gibbous
Oct 13
Full
Oct 21
Last Quarter
Oct 27
New
Nov 4
First Quarter

Hourly Weather History & Observations

Time (EDT) Temp. Dew Point Humidity Pressure Visibility Wind Dir Wind Speed Gust Speed Precip Events Conditions
12:52 AM 68.0 °F 55.0 °F 63% 30.04 in 10.0 mi SE 9.2 mph - N/A   Mostly Cloudy
1:52 AM 68.0 °F 55.9 °F 65% 30.03 in 10.0 mi SSE 10.4 mph - N/A   Mostly Cloudy
2:52 AM 66.9 °F 55.9 °F 68% 30.02 in 10.0 mi South 6.9 mph - N/A   Mostly Cloudy
3:52 AM 66.0 °F 55.0 °F 68% 30.00 in 10.0 mi SSE 6.9 mph - N/A   Mostly Cloudy
4:52 AM 64.9 °F 55.0 °F 70% 30.01 in 10.0 mi SSE 4.6 mph - N/A   Scattered Clouds
5:52 AM 64.9 °F 55.9 °F 73% 30.01 in 10.0 mi SSE 6.9 mph - N/A   Mostly Cloudy
6:52 AM 64.9 °F 55.9 °F 73% 30.01 in 10.0 mi SSE 8.1 mph - 0.00 in Rain Light Rain
7:52 AM 64.9 °F 57.0 °F 75% 30.02 in 10.0 mi South 8.1 mph - 0.00 in Rain Light Rain
8:52 AM 66.0 °F 57.0 °F 73% 30.03 in 10.0 mi South 10.4 mph - 0.00 in   Mostly Cloudy
9:52 AM 69.1 °F 55.9 °F 63% 30.02 in 10.0 mi South 11.5 mph - N/A   Mostly Cloudy
10:52 AM 69.1 °F 55.9 °F 63% 30.03 in 10.0 mi South 12.7 mph - N/A   Overcast
11:52 AM 73.9 °F 57.0 °F 55% 30.02 in 10.0 mi SW 17.3 mph 24.2 mph N/A   Overcast
12:52 PM 75.0 °F 57.0 °F 53% 30.01 in 10.0 mi SSW 11.5 mph 20.7 mph N/A   Overcast
1:52 PM 73.0 °F 57.9 °F 59% 29.99 in 10.0 mi SSW 18.4 mph 26.5 mph 0.00 in Rain Light Rain
2:52 PM 66.0 °F 62.1 °F 87% 29.97 in 6.0 mi South 11.5 mph - 0.07 in Rain Light Rain
3:52 PM 69.1 °F 61.0 °F 75% 29.94 in 10.0 mi South 8.1 mph - 0.01 in   Overcast
4:52 PM 71.1 °F 60.1 °F 68% 29.93 in 10.0 mi South 10.4 mph - 0.00 in Rain Light Rain
5:52 PM 71.1 °F 59.0 °F 66% 29.91 in 10.0 mi South 8.1 mph - 0.00 in   Overcast
6:52 PM 70.0 °F 59.0 °F 68% 29.91 in 10.0 mi SSW 6.9 mph - 0.00 in   Overcast
7:52 PM 71.1 °F 57.9 °F 63% 29.92 in 10.0 mi SW 6.9 mph - 0.00 in   Overcast
8:52 PM 70.0 °F 59.0 °F 68% 29.92 in 10.0 mi SW 11.5 mph - N/A   Overcast
9:18 PM 66.9 °F 61.0 °F 81% 29.95 in 9.0 mi WNW 21.9 mph 32.2 mph 0.00 in Rain Light Rain
9:26 PM 57.9 °F 55.0 °F 90% 29.97 in 4.0 mi WNW 24.2 mph 32.2 mph 0.00 in Rain Light Rain
9:45 PM 55.0 °F 52.0 °F 89% 29.99 in 10.0 mi WNW 16.1 mph - 0.00 in Rain Light Rain
9:49 PM 55.4 °F 51.8 °F 88% 30.00 in 10.0 mi WNW 21.9 mph 25.3 mph 0.00 in Rain Light Rain
9:52 PM 54.0 °F 51.1 °F 90% 29.99 in 10.0 mi WNW 20.7 mph 25.3 mph 0.00 in   Overcast
10:52 PM 50.0 °F 46.9 °F 89% 30.03 in 4.0 mi NW 19.6 mph 26.5 mph 0.00 in Rain Light Rain
11:14 PM 48.9 °F 45.0 °F 86% 30.04 in 10.0 mi NW 18.4 mph - 0.01 in Rain Light Rain
11:24 PM 48.0 °F 45.0 °F 89% 30.04 in 4.0 mi NW 11.5 mph 26.5 mph 0.03 in Rain Rain
11:32 PM 48.9 °F 45.0 °F 86% 30.05 in 6.0 mi NW 13.8 mph - 0.04 in Rain Light Rain
11:52 PM 46.9 °F 44.1 °F 90% 30.04 in 7.0 mi NW 16.1 mph 21.9 mph 0.05 in Rain Light Rain